Weather History for Augsburg, Germany

Change the Weather History Date:

Monday, January 21, 2013

  Actual Average Record
Temperature  
Mean Temperature 24 °F -  
Max Temperature 31 °F 38 °F 48 °F (2008)
Min Temperature 16 °F 25 °F 16 °F (2013)
Degree Days  
Heating Degree Days 42    
Moisture  
Dew Point 26 °F    
Average Humidity 95    
Maximum Humidity 100    
Minimum Humidity 83    
Precipitation  
Precipitation 0.08 in - - ()
Sea Level Pressure  
Sea Level Pressure 29.47 in    
Wind  
Wind Speed 3 mph ()    
Max Wind Speed 6 mph    
Max Gust Speed -    
Visibility 2.4 miles    
Events Fog , Snow    
Averages and records for this station are not official NWS values.
T = Trace of Precipitation, MM = Missing Value Source: Averaged Metar Reports

Daily Weather History Graph

Daily Weather History Graph

Search for Another Location

Airport:

Trip Planner

Search our weather history database for the weather conditions in past years. The results will help you decide how hot, cold, wet, or windy it might be!

Date:

Astronomy

Jan. 21, 2013 Rise Set
Actual Time 7:57 AM CET 4:57 PM CET
Civil Twilight 7:22 AM CET 5:32 PM CET
Nautical Twilight 6:44 AM CET 6:11 PM CET
Astronomical Twilight 6:07 AM CET 6:48 PM CET
Moon 12:25 PM CET (1/21) 3:10 AM CET (1/21)
Length of Visible Light 10h 09m
Length of Day
9h 00m
Waxing Gibbous, 73% of the Moon is Illuminated
Jan 21
Waxing Gibbous
Jan 27
Full
Feb 3
Last Quarter
Feb 10
New
Feb 17
First Quarter

Hourly Weather History & Observations

Time (CET) Temp. Windchill Dew Point Humidity Pressure Visibility Wind Dir Wind Speed Gust Speed Precip Events Conditions
12:00 AM 18 °F - 17 °F 95% 29.48 in 0 mi NNE 2.2 mph - - Fog Fog
12:20 AM 17.6 °F - 15.8 °F 93% 29.36 in 1.2 mi Variable 1.2 mph - N/A   Unknown
12:50 AM 17.6 °F - 17.6 °F 100% 29.36 in 0.5 mi NNW 2.3 mph - N/A   Unknown
1:00 AM 18 °F - 18 °F 98% 29.48 in 1 mi Calm Calm - - Fog Fog
1:20 AM 19.4 °F 14.3 °F 19.4 °F 100% 29.39 in 1.3 mi NW 3.5 mph - N/A   Unknown
1:50 AM 21.2 °F 16.4 °F 21.2 °F 100% 29.39 in 1.3 mi NW 3.5 mph - N/A   Unknown
2:00 AM 21 °F - 21 °F 98% 29.49 in 2 mi NW 4.5 mph - -   Mist
2:20 AM 21.2 °F 16.4 °F 21.2 °F 100% 29.39 in 1.3 mi WNW 3.5 mph - N/A   Unknown
2:50 AM 21.2 °F - 21.2 °F 100% 29.39 in 1.3 mi Variable 1.2 mph - N/A   Unknown
3:00 AM 22 °F - 21 °F 95% 29.49 in 2 mi ESE 2.2 mph - -   Mist
3:20 AM 23.0 °F 18.4 °F 23.0 °F 100% 29.39 in 1.3 mi SSW 3.5 mph - N/A   Unknown
3:50 AM 23.0 °F 15.8 °F 23.0 °F 100% 29.42 in 1.3 mi SW 5.8 mph - N/A   Unknown
4:20 AM 23.0 °F 17.0 °F 23.0 °F 100% 29.42 in 1.3 mi WSW 4.6 mph - N/A   Unknown
4:50 AM 24.8 °F 17.9 °F 23.0 °F 93% 29.42 in 1.3 mi WSW 5.8 mph - N/A   Unknown
5:00 AM 24 °F - 23 °F 92% 29.51 in 2 mi WSW 4.5 mph - -   Mist
5:20 AM 24.8 °F 19.1 °F 23.0 °F 93% 29.42 in 1.3 mi WSW 4.6 mph - N/A Snow Snow Grains
5:50 AM 24.8 °F 19.1 °F 23.0 °F 93% 29.42 in 2.8 mi West 4.6 mph - N/A Snow Light Snow
6:00 AM 24 °F - 23 °F 94% 29.51 in 2 mi West 4.5 mph - - Snow Light Snow
6:20 AM 24.8 °F - 23.0 °F 93% 29.42 in 2.8 mi Variable 2.3 mph - N/A Snow Light Snow
6:50 AM 24.8 °F 20.5 °F 24.8 °F 100% 29.42 in 1.3 mi WSW 3.5 mph - N/A Snow Light Snow
7:00 AM 25 °F - 24 °F 94% 29.51 in 1 mi WSW 2.2 mph - - Snow Light Snow
7:20 AM 24.8 °F 19.1 °F 24.8 °F 100% 29.42 in 1.1 mi WSW 4.6 mph - N/A Snow Light Snow
7:50 AM 26.6 °F 22.6 °F 24.8 °F 93% 29.42 in 1.1 mi West 3.5 mph - N/A Snow Light Snow
8:00 AM 26 °F - 25 °F 95% 29.52 in 1 mi WSW 4.5 mph - - Snow Snow
8:20 AM 26.6 °F 20.0 °F 26.6 °F 100% 29.44 in 0.9 mi West 5.8 mph - N/A Snow Light Snow
8:50 AM 26.6 °F 22.6 °F 26.6 °F 100% 29.44 in 0.9 mi West 3.5 mph - N/A Snow Snow
9:00 AM 26 °F - 26 °F 100% 29.54 in 1 mi West 4.5 mph - - Snow Snow
9:20 AM 26.6 °F 22.6 °F 26.6 °F 100% 29.44 in 0.8 mi West 3.5 mph - N/A Snow Snow
9:50 AM 26.6 °F 21.2 °F 26.6 °F 100% 29.47 in 0.9 mi West 4.6 mph - N/A Snow Snow
10:20 AM 28.4 °F - 28.4 °F 100% 29.44 in 1.6 mi WNW 2.3 mph - N/A Snow Snow Grains
10:50 AM 28.4 °F - 28.4 °F 100% 29.47 in 1.2 mi WSW 2.3 mph - N/A Snow Light Snow
11:00 AM 28 °F - 27 °F 96% 29.55 in 1 mi West 2.2 mph - - Snow Light Snow
11:20 AM 28.4 °F 24.6 °F 28.4 °F 100% 29.47 in 1.9 mi WSW 3.5 mph - N/A Snow Light Snow
11:50 AM 30.2 °F 26.7 °F 28.4 °F 93% 29.44 in 2.8 mi West 3.5 mph - N/A   Overcast
12:00 PM 29 °F - 28 °F 92% 29.54 in 2 mi West 4.5 mph - - Snow Light Snow
12:20 PM 30.2 °F 26.7 °F 28.4 °F 93% 29.44 in 2.8 mi West 3.5 mph - N/A   Overcast
12:50 PM 30.2 °F - 28.4 °F 93% 29.44 in 2.8 mi Variable 1.2 mph - N/A Snow Snow Grains
1:00 PM 31 °F - 28 °F 83% 29.52 in 4 mi West 2.2 mph - - Snow Light Snow
1:20 PM 32.0 °F - 28.4 °F 87% 29.44 in 3.1 mi Variable 1.2 mph - N/A Snow Light Snow Grains
1:50 PM 30.2 °F - 28.4 °F 93% 29.44 in 2.8 mi SW 2.3 mph - N/A Snow Light Snow
2:00 PM 31 °F - 28 °F 84% 29.52 in 3 mi SSW 2.2 mph - - Snow Light Snow
2:20 PM 32.0 °F - 28.4 °F 87% 29.44 in 3.1 mi WSW 2.3 mph - N/A Snow Snow Grains
2:50 PM 32.0 °F - 28.4 °F 87% 29.44 in 3.7 mi Variable 1.2 mph - N/A   Overcast
3:00 PM 31 °F - 28 °F 84% 29.51 in 4 mi Calm Calm - - Snow Light Snow
3:20 PM 30.2 °F - 28.4 °F 93% 29.44 in 5.6 mi Variable 1.2 mph - N/A   Overcast
3:50 PM 30.2 °F - 28.4 °F 93% 29.44 in 5.0 mi Variable 2.3 mph - N/A   Overcast
4:20 PM 28.4 °F - 26.6 °F 93% 29.44 in 5.0 mi Variable 1.2 mph - N/A   Overcast
4:50 PM 30.2 °F - 26.6 °F 86% 29.47 in 5.0 mi Variable 2.3 mph - N/A   Mostly Cloudy
5:00 PM 29 °F - 27 °F 89% 29.54 in 4 mi East 2.2 mph - -   Mist
5:20 PM 30.2 °F - 28.4 °F 93% 29.47 in 5.0 mi Variable 1.2 mph - N/A   Overcast
5:50 PM 30.2 °F - 28.4 °F 93% 29.47 in 5.0 mi Variable 1.2 mph - N/A   Overcast
6:00 PM 29 °F - 28 °F 92% 29.56 in 3 mi Calm Calm - -   Mist
6:20 PM 28.4 °F 24.6 °F 28.4 °F 100% 29.47 in 5.0 mi East 3.5 mph - N/A   Overcast
6:50 PM 30.2 °F 26.7 °F 28.4 °F 93% 29.47 in 5.0 mi SSE 3.5 mph - N/A   Overcast
7:00 PM 30 °F - 28 °F 91% 29.57 in 3 mi SSE 4.5 mph - -   Mist
7:20 PM 30.2 °F 25.4 °F 28.4 °F 93% 29.50 in 5.0 mi SSE 4.6 mph - N/A   Mostly Cloudy
8:00 PM 29 °F - 28 °F 93% 29.58 in 3 mi SE 4.5 mph - - Snow Light Snow
8:20 PM 28.4 °F 24.6 °F 28.4 °F 100% 29.50 in 5.0 mi SE 3.5 mph - N/A   Mostly Cloudy
8:50 PM 28.4 °F 23.3 °F 26.6 °F 93% 29.50 in 5.0 mi SE 4.6 mph - N/A Snow Light Snow
9:00 PM 28 °F - 27 °F 95% 29.60 in 2 mi SE 4.5 mph - - Snow Light Snow
9:20 PM 28.4 °F 22.2 °F 28.4 °F 100% 29.50 in 1.3 mi SE 5.8 mph - N/A Snow Light Snow
9:50 PM 28.4 °F 23.3 °F 28.4 °F 100% 29.50 in 1.3 mi SE 4.6 mph - N/A Snow Light Snow
10:20 PM 28.4 °F 23.3 °F 28.4 °F 100% 29.50 in 1.3 mi SE 4.6 mph - N/A Snow Light Snow
10:50 PM 28.4 °F 23.3 °F 28.4 °F 100% 29.50 in 1.3 mi SE 4.6 mph - N/A   Unknown
11:00 PM 29 °F - 28 °F 92% 29.60 in 2 mi SE 4.5 mph - - Snow Snow
11:20 PM 28.4 °F - 28.4 °F 100% 29.50 in 1.3 mi SSE 2.3 mph - N/A   Unknown
11:50 PM 28.4 °F 24.6 °F 28.4 °F 100% 29.50 in 1.3 mi South 3.5 mph - N/A   Unknown